Location: Grand Rapids
(42.9630°N, 85.6680°W)
Time: 14:05:54
(UTC-04:00)

Envisat - Visible Passes

Search period start: 01 October 2023 00:00
Search period end: 11 October 2023 00:00
Orbit: 763 x 764 km, 98.2° (Epoch: 01 October)

Date Brightness Start Highest point End Pass type
(mag) Time Alt. Az. Time Alt. Az. Time Alt. Az.
01 Oct 3.6 05:04:48 10° NNE 05:09:47 53° E 05:11:24 38° SSE visible
01 Oct 4.3 06:44:43 10° NNW 06:48:22 20° WNW 06:51:34 12° WSW visible
02 Oct 4.9 04:28:15 10° NE 04:32:22 24° E 04:33:38 22° ESE visible
02 Oct 3.4 06:06:44 10° N 06:11:30 41° WNW 06:13:48 26° WSW visible
03 Oct 5.8 03:53:44 10° ENE 03:54:45 11° E 03:55:44 10° E visible
03 Oct 2.9 05:29:18 10° NNE 05:34:24 90° WNW 05:36:02 45° SSW visible
03 Oct 4.8 07:10:31 10° NNW 07:12:37 13° WNW 07:14:43 10° W visible
04 Oct 4.1 04:52:20 10° NNE 04:57:07 41° E 04:58:16 36° SE visible
04 Oct 4.0 06:31:45 10° N 06:35:53 26° WNW 06:38:25 17° WSW visible
05 Oct 5.2 04:16:06 10° NE 04:19:38 19° E 04:20:29 18° ESE visible
05 Oct 3.1 05:53:59 10° N 05:58:56 54° WNW 06:00:39 36° SW visible
06 Oct 3.1 05:16:42 10° NNE 05:21:47 70° ESE 05:22:53 53° SSE visible
06 Oct 4.6 06:57:09 10° NNW 07:00:11 16° WNW 07:03:02 11° W visible
07 Oct 4.5 04:39:55 10° NNE 04:44:26 31° E 04:45:06 30° ESE visible
07 Oct 3.7 06:18:53 10° N 06:23:22 32° WNW 06:25:15 25° WSW visible
08 Oct 5.6 04:04:10 10° ENE 04:06:52 14° E 04:07:18 14° E visible
08 Oct 2.9 05:41:17 10° N 05:46:20 70° WNW 05:47:28 52° SW visible
09 Oct 3.6 05:04:09 10° NNE 05:09:08 54° E 05:09:41 51° SE visible
09 Oct 4.3 06:44:03 10° NNW 06:47:42 20° WNW 06:49:51 16° W visible
10 Oct 4.9 04:27:35 10° NE 04:31:42 24° E 04:31:54 24° E visible
10 Oct 3.4 06:06:04 10° N 06:10:49 41° WNW 06:12:03 35° WSW visible
